Location: Castiglione Fibocchi
(43.5333°N, 11.7667°E)
Time: 14:26:23
(UTC+00:00)

Cosmos 1937 Rocket - Pass Details

Date: 15 August 2020
Orbit: 747 x 780 km, 74.0° (Epoch: 24 September)

Event Time Altitude Azimuth Distance (km) Brightness Sun altitude
Exits shadow 00:27:05 49° 68° (ENE) 1,000 4.2 -30.3°
Drops below altitude 10° 00:31:22 10° 29° (NNE) 2,339 6.9 -30.1°
Sets 00:33:47 0° 25° (NNE) 3,268 8.0 -29.9°
